Time,TemperatureF,DewpointF,PressureIn,WindDirection,WindDirectionDegrees,WindSpeedMPH,WindSpeedGustMPH,Humidity,HourlyPrecipIn,Conditions,Clouds,dailyrainin,SoftwareType,DateUTC
2013-02-14 00:00:00,30.7,29.4,29.70,North,360,11.0,12.0,95,0.00,,,0.00,VWS V14.01,2013-02-14 06:00:00,
2013-02-14 00:01:00,30.7,29.4,29.69,North,350,10.0,11.0,95,0.00,,,0.10,VWS V14.01,2013-02-14 06:01:00,
2013-02-14 00:05:00,30.7,29.4,29.70,North,10,9.0,13.0,95,0.00,,,0.00,VWS V14.01,2013-02-14 06:05:00,
2013-02-14 00:07:00,30.7,29.4,29.70,North,355,10.0,11.0,95,0.00,,,0.00,VWS V14.01,2013-02-14 06:07:00,
2013-02-14 00:10:00,30.7,29.4,29.70,North,360,9.0,13.0,95,0.00,,,0.00,VWS V14.01,2013-02-14 06:10:00,
2013-02-14 00:12:00,30.7,29.4,29.70,North,360,11.0,13.0,95,0.00,,,0.00,VWS V14.01,2013-02-14 06:12:00,
2013-02-14 00:15:00,30.7,29.4,29.70,North,355,12.0,14.0,95,0.00,,,0.00,VWS V14.01,2013-02-14 06:15:00,
2013-02-14 00:17:00,30.7,29.4,29.70,North,355,12.0,14.0,95,0.00,,,0.00,VWS V14.01,2013-02-14 06:17:00,
2013-02-14 00:20:00,30.7,29.4,29.70,NNE,26,15.0,15.0,95,0.00,,,0.00,VWS V14.01,2013-02-14 06:20:00,
2013-02-14 00:22:00,30.7,29.4,29.70,North,360,12.0,15.0,95,0.00,,,0.00,VWS V14.01,2013-02-14 06:22:00,
2013-02-14 00:25:00,30.6,29.3,29.71,North,360,13.0,18.0,95,0.00,,,0.00,VWS V14.01,2013-02-14 06:25:00,
2013-02-14 00:27:00,30.6,29.3,29.71,North,5,14.0,18.0,95,0.00,,,0.00,VWS V14.01,2013-02-14 06:27:00,
2013-02-14 00:30:00,30.3,29.0,29.72,North,360,13.0,15.0,95,0.00,,,0.00,VWS V14.01,2013-02-14 06:30:00,
2013-02-14 00:32:00,30.4,29.1,29.72,North,10,9.0,14.0,95,0.00,,,0.00,VWS V14.01,2013-02-14 06:32:00,
2013-02-14 00:35:00,30.2,28.9,29.72,North,355,16.0,17.0,95,0.00,,,0.00,VWS V14.01,2013-02-14 06:35:00,
2013-02-14 00:37:00,30.2,28.9,29.72,North,10,14.0,15.0,95,0.00,,,0.00,VWS V14.01,2013-02-14 06:37:00,
2013-02-14 00:40:00,30.0,28.5,29.72,North,11,14.0,18.0,94,0.00,,,0.00,VWS V14.01,2013-02-14 06:40:00,
2013-02-14 00:42:00,30.0,28.5,29.72,North,360,13.0,18.0,94,0.00,,,0.00,VWS V14.01,2013-02-14 06:42:00,
2013-02-14 00:45:00,29.7,28.2,29.72,North,360,10.0,16.0,94,0.00,,,0.00,VWS V14.01,2013-02-14 06:45:00,
2013-02-14 00:47:00,29.8,28.3,29.72,North,9,13.0,16.0,94,0.00,,,0.00,VWS V14.01,2013-02-14 06:47:00,
2013-02-14 00:50:00,29.4,27.9,29.73,NNE,19,12.0,14.0,94,0.00,,,0.00,VWS V14.01,2013-02-14 06:50:00,
2013-02-14 00:52:00,29.5,28.0,29.73,North,355,10.0,14.0,94,0.00,,,0.00,VWS V14.01,2013-02-14 06:52:00,
2013-02-14 00:55:00,29.1,27.6,29.73,NNE,22,10.0,15.0,94,0.00,,,0.00,VWS V14.01,2013-02-14 06:55:00,
2013-02-14 00:57:00,29.1,27.6,29.73,North,9,10.0,15.0,94,0.00,,,0.00,VWS V14.01,2013-02-14 06:57:00,
2013-02-14 01:00:00,28.8,27.3,29.73,NNE,19,9.0,13.0,94,0.00,,,0.00,VWS V14.01,2013-02-14 07:00:00,
2013-02-14 01:03:00,28.8,27.3,29.73,NNE,21,10.0,13.0,94,0.00,,,0.00,VWS V14.01,2013-02-14 07:03:00,
2013-02-14 02:50:00,24.7,22.7,29.81,NNW,335,4.0,4.0,92,0.00,,CLR,0.00,VWS V14.01,2013-02-14 08:50:00,
2013-02-14 02:55:00,24.6,22.4,29.81,NW,321,4.0,6.0,91,0.00,,CLR,0.00,VWS V14.01,2013-02-14 08:55:00,
2013-02-14 03:00:00,24.6,22.4,29.81,NW,309,5.0,6.0,91,0.00,,CLR,0.00,VWS V14.01,2013-02-14 09:00:00,
2013-02-14 03:05:00,24.5,22.2,29.82,NW,308,1.0,5.0,91,0.00,,CLR,0.00,VWS V14.01,2013-02-14 09:05:00,
2013-02-14 03:10:00,24.3,22.1,29.82,NW,310,4.0,5.0,91,0.00,,CLR,0.00,VWS V14.01,2013-02-14 09:10:00,
2013-02-14 03:15:00,24.1,21.9,29.82,NW,311,4.0,6.0,91,0.00,,CLR,0.00,VWS V14.01,2013-02-14 09:15:00,
2013-02-14 03:20:00,23.8,21.6,29.82,NW,308,2.0,4.0,91,0.00,,CLR,0.00,VWS V14.01,2013-02-14 09:20:00,
2013-02-14 03:25:00,23.6,21.4,29.82,NW,313,1.0,5.0,91,0.00,,CLR,0.00,VWS V14.01,2013-02-14 09:25:00,
2013-02-14 03:30:00,23.4,21.2,29.83,NW,304,2.0,4.0,91,0.00,,CLR,0.00,VWS V14.01,2013-02-14 09:30:00,
2013-02-14 03:35:00,23.3,21.1,29.83,NW,315,3.0,4.0,91,0.00,,CLR,0.00,VWS V14.01,2013-02-14 09:35:00,
2013-02-14 03:40:00,23.2,21.2,29.83,NNW,329,5.0,6.0,92,0.00,,CLR,0.00,VWS V14.01,2013-02-14 09:40:00,
2013-02-14 03:45:00,23.2,21.2,29.83,NW,323,4.0,7.0,92,0.00,,CLR,0.00,VWS V14.01,2013-02-14 09:45:00,
2013-02-14 03:50:00,23.2,21.2,29.84,NNW,331,5.0,7.0,92,0.00,,CLR,0.00,VWS V14.01,2013-02-14 09:50:00,
2013-02-14 03:54:00,24.7,22.7,29.81,NNW,335,4.0,4.0,92,0.00,,,0.00,VWS V14.01,2013-02-14 09:54:00,
2013-02-14 03:55:00,23.3,21.3,29.84,NW,312,3.0,7.0,92,0.00,,CLR,0.00,VWS V14.01,2013-02-14 09:55:00,
2013-02-14 03:59:00,24.5,22.2,29.81,NW,310,2.0,4.0,91,0.00,,CLR,0.00,VWS V14.01,2013-02-14 09:59:00,
2013-02-14 04:00:00,23.1,21.1,29.84,NNW,341,3.0,5.0,92,0.00,,CLR,0.00,VWS V14.01,2013-02-14 10:00:00,
2013-02-14 04:04:00,24.6,22.4,29.82,NW,321,4.0,5.0,91,0.00,,CLR,0.00,VWS V14.01,2013-02-14 10:04:00,
2013-02-14 04:05:00,23.0,21.0,29.84,WNW,291,1.0,4.0,92,0.00,,CLR,0.00,VWS V14.01,2013-02-14 10:05:00,
2013-02-14 04:09:00,24.5,22.2,29.82,NW,313,3.0,4.0,91,0.00,,CLR,0.00,VWS V14.01,2013-02-14 10:09:00,
2013-02-14 04:10:00,22.7,20.5,29.84,NW,313,2.0,4.0,91,0.00,,CLR,0.00,VWS V14.01,2013-02-14 10:10:00,
2013-02-14 04:14:00,24.2,22.0,29.82,NW,319,5.0,6.0,91,0.00,,CLR,0.00,VWS V14.01,2013-02-14 10:14:00,
2013-02-14 04:15:00,22.5,20.3,29.85,NW,313,4.0,5.0,91,0.00,,CLR,0.00,VWS V14.01,2013-02-14 10:15:00,
2013-02-14 04:19:00,24.0,21.8,29.82,NW,306,3.0,4.0,91,0.00,,CLR,0.00,VWS V14.01,2013-02-14 10:19:00,
2013-02-14 04:20:00,22.4,20.4,29.85,WNW,300,0.0,5.0,92,0.00,,CLR,0.00,VWS V14.01,2013-02-14 10:20:00,
2013-02-14 04:24:00,23.8,21.6,29.82,WNW,303,2.0,3.0,91,0.00,,CLR,0.00,VWS V14.01,2013-02-14 10:24:00,
2013-02-14 04:25:00,22.2,20.2,29.85,WNW,303,3.0,4.0,92,0.00,,CLR,0.00,VWS V14.01,2013-02-14 10:25:00,
2013-02-14 04:29:00,23.5,21.3,29.82,NW,304,2.0,4.0,91,0.00,,CLR,0.00,VWS V14.01,2013-02-14 10:29:00,
2013-02-14 04:30:00,22.0,19.8,29.85,NW,323,2.0,5.0,91,0.00,,CLR,0.00,VWS V14.01,2013-02-14 10:30:00,
2013-02-14 04:34:00,23.4,21.2,29.83,NW,323,3.0,3.0,91,0.00,,CLR,0.00,VWS V14.01,2013-02-14 10:34:00,
2013-02-14 04:35:00,21.8,19.8,29.85,NW,322,3.0,7.0,92,0.00,,CLR,0.00,VWS V14.01,2013-02-14 10:35:00,
2013-02-14 04:39:00,23.3,21.1,29.83,NNW,327,4.0,5.0,91,0.00,,CLR,0.00,VWS V14.01,2013-02-14 10:39:00,
2013-02-14 04:40:00,21.8,19.6,29.86,NW,305,2.0,7.0,91,0.00,,CLR,0.00,VWS V14.01,2013-02-14 10:40:00,
2013-02-14 04:44:00,23.2,21.2,29.83,WNW,293,6.0,6.0,92,0.00,,CLR,0.00,VWS V14.01,2013-02-14 10:44:00,
2013-02-14 04:45:00,21.8,19.8,29.86,NW,321,2.0,6.0,92,0.00,,CLR,0.00,VWS V14.01,2013-02-14 10:45:00,
2013-02-14 04:49:00,23.2,21.2,29.83,NNW,329,5.0,6.0,92,0.00,,CLR,0.00,VWS V14.01,2013-02-14 10:49:00,
2013-02-14 04:50:00,21.7,19.7,29.86,NW,318,5.0,5.0,92,0.00,,CLR,0.00,VWS V14.01,2013-02-14 10:50:00,
2013-02-14 04:55:00,23.2,21.2,29.84,NW,318,5.0,7.0,92,0.00,,CLR,0.00,VWS V14.01,2013-02-14 10:55:00,
2013-02-14 05:00:00,23.2,21.2,29.84,NW,314,4.0,5.0,92,0.00,,CLR,0.00,VWS V14.01,2013-02-14 11:00:00,
2013-02-14 05:05:00,23.0,21.0,29.84,NW,309,1.0,4.0,92,0.00,,CLR,0.00,VWS V14.01,2013-02-14 11:05:00,
2013-02-14 05:10:00,22.9,20.7,29.84,NW,307,0.0,4.0,91,0.00,,CLR,0.00,VWS V14.01,2013-02-14 11:10:00,
2013-02-14 05:15:00,22.6,20.4,29.84,NW,309,4.0,5.0,91,0.00,,CLR,0.00,VWS V14.01,2013-02-14 11:15:00,
2013-02-14 05:20:00,22.4,20.2,29.85,NW,321,3.0,5.0,91,0.00,,CLR,0.00,VWS V14.01,2013-02-14 11:20:00,
2013-02-14 05:25:00,22.3,20.3,29.85,WNW,288,1.0,4.0,92,0.00,,CLR,0.00,VWS V14.01,2013-02-14 11:25:00,
2013-02-14 05:30:00,22.1,19.9,29.85,WNW,291,3.0,4.0,91,0.00,,CLR,0.00,VWS V14.01,2013-02-14 11:30:00,
2013-02-14 05:35:00,21.8,19.6,29.85,WNW,303,4.0,5.0,91,0.00,,FEW055,0.00,VWS V14.01,2013-02-14 11:35:00,
2013-02-14 05:40:00,21.8,19.8,29.86,NW,304,3.0,6.0,92,0.00,,FEW055,0.00,VWS V14.01,2013-02-14 11:40:00,
2013-02-14 05:45:00,21.8,19.8,29.86,NW,323,4.0,6.0,92,0.00,,FEW055,0.00,VWS V14.01,2013-02-14 11:45:00,
2013-02-14 05:50:00,19.8,17.6,29.89,NW,314,3.0,5.0,91,0.00,,CLR,0.00,VWS V14.01,2013-02-14 11:50:00,
2013-02-14 05:51:00,21.8,19.6,29.86,WNW,296,3.0,4.0,91,0.00,,FEW055,0.00,VWS V14.01,2013-02-14 11:51:00,
2013-02-14 05:55:00,19.7,17.5,29.89,NW,317,1.0,4.0,91,0.00,,CLR,0.00,VWS V14.01,2013-02-14 11:55:00,
2013-02-14 05:56:00,21.6,19.4,29.86,NW,309,2.0,5.0,91,0.00,,FEW055,0.00,VWS V14.01,2013-02-14 11:56:00,
2013-02-14 06:00:00,19.5,17.3,29.89,NNW,333,2.0,6.0,91,0.00,,CLR,0.00,VWS V14.01,2013-02-14 12:00:00,
2013-02-14 06:01:00,21.4,19.2,29.86,WNW,301,2.0,6.0,91,0.00,,FEW055,0.00,VWS V14.01,2013-02-14 12:01:00,
2013-02-14 06:05:00,19.6,17.4,29.89,NNW,331,3.0,6.0,91,0.00,,CLR,0.00,VWS V14.01,2013-02-14 12:05:00,
2013-02-14 06:06:00,21.3,19.1,29.87,NW,317,2.0,6.0,91,0.00,,FEW055,0.00,VWS V14.01,2013-02-14 12:06:00,
2013-02-14 06:10:00,19.7,17.5,29.90,NW,315,2.0,6.0,91,0.00,,CLR,0.00,VWS V14.01,2013-02-14 12:10:00,
2013-02-14 06:11:00,21.1,18.9,29.87,NW,320,4.0,5.0,91,0.00,,FEW055,0.00,VWS V14.01,2013-02-14 12:11:00,
2013-02-14 06:15:00,19.8,17.9,29.90,NW,326,4.0,7.0,92,0.00,,CLR,0.00,VWS V14.01,2013-02-14 12:15:00,
2013-02-14 06:16:00,20.9,18.7,29.87,WNW,300,1.0,6.0,91,0.00,,FEW055,0.00,VWS V14.01,2013-02-14 12:16:00,
2013-02-14 06:20:00,19.9,17.7,29.91,NNW,327,4.0,7.0,91,0.00,,CLR,0.00,VWS V14.01,2013-02-14 12:20:00,
2013-02-14 06:21:00,20.8,18.6,29.87,WNW,286,0.0,5.0,91,0.00,,FEW055,0.00,VWS V14.01,2013-02-14 12:21:00,
2013-02-14 06:25:00,20.0,17.8,29.91,NW,325,5.0,6.0,91,0.00,,CLR,0.00,VWS V14.01,2013-02-14 12:25:00,
2013-02-14 06:26:00,20.6,18.4,29.88,NW,318,0.0,5.0,91,0.00,,FEW055,0.00,VWS V14.01,2013-02-14 12:26:00,
2013-02-14 06:30:00,20.1,17.9,29.91,NNW,338,4.0,7.0,91,0.00,,CLR,0.00,VWS V14.01,2013-02-14 12:30:00,
2013-02-14 06:31:00,20.2,18.0,29.88,WNW,289,3.0,4.0,91,0.00,,FEW055,0.00,VWS V14.01,2013-02-14 12:31:00,
2013-02-14 06:35:00,20.3,18.1,29.91,NW,307,4.0,7.0,91,0.00,,CLR,0.00,VWS V14.01,2013-02-14 12:35:00,
2013-02-14 06:37:00,20.1,17.9,29.88,NW,312,3.0,6.0,91,0.00,,FEW055,0.00,VWS V14.01,2013-02-14 12:37:00,
2013-02-14 06:40:00,20.4,18.2,29.91,NNW,337,5.0,8.0,91,0.00,,CLR,0.00,VWS V14.01,2013-02-14 12:40:00,
2013-02-14 06:42:00,20.1,17.9,29.89,NW,313,4.0,6.0,91,0.00,,FEW055,0.00,VWS V14.01,2013-02-14 12:42:00,
2013-02-14 06:45:00,20.6,18.4,29.91,North,355,5.0,9.0,91,0.00,,CLR,0.00,VWS V14.01,2013-02-14 12:45:00,
2013-02-14 06:47:00,20.0,17.8,29.89,NW,309,3.0,5.0,91,0.00,,FEW055,0.00,VWS V14.01,2013-02-14 12:47:00,
2013-02-14 06:50:00,20.7,18.5,29.92,NNW,335,7.0,10.0,91,0.00,,CLR,0.00,VWS V14.01,2013-02-14 12:50:00,
2013-02-14 06:52:00,19.8,17.6,29.89,NW,309,3.0,5.0,91,0.00,,,0.00,VWS V14.01,2013-02-14 12:52:00,
2013-02-14 06:55:00,20.9,18.7,29.92,North,355,10.0,11.0,91,0.00,,CLR,0.00,VWS V14.01,2013-02-14 12:55:00,
2013-02-14 06:57:00,19.7,17.5,29.89,NW,317,2.0,4.0,91,0.00,,,0.00,VWS V14.01,2013-02-14 12:57:00,
2013-02-14 07:00:00,20.9,18.7,29.92,NNW,329,4.0,11.0,91,0.00,,CLR,0.00,VWS V14.01,2013-02-14 13:00:00,
2013-02-14 07:02:00,19.5,17.3,29.89,NNW,334,2.0,6.0,91,0.00,,,0.00,VWS V14.01,2013-02-14 13:02:00,
2013-02-14 07:05:00,20.8,18.6,29.93,NNW,332,6.0,10.0,91,0.00,,CLR,0.00,VWS V14.01,2013-02-14 13:05:00,
2013-02-14 07:07:00,19.6,17.4,29.89,NNW,333,2.0,6.0,91,0.00,,,0.00,VWS V14.01,2013-02-14 13:07:00,
2013-02-14 07:10:00,20.7,18.2,29.93,NW,326,2.0,9.0,90,0.00,,CLR,0.00,VWS V14.01,2013-02-14 13:10:00,
2013-02-14 07:12:00,19.7,17.5,29.90,NW,313,3.0,6.0,91,0.00,,,0.00,VWS V14.01,2013-02-14 13:12:00,
2013-02-14 07:17:00,19.8,17.9,29.90,NW,319,4.0,7.0,92,0.00,,,0.00,VWS V14.01,2013-02-14 13:17:00,
2013-02-14 07:22:00,19.9,17.7,29.91,NNW,329,2.0,7.0,91,0.00,,,0.00,VWS V14.01,2013-02-14 13:22:00,
2013-02-14 07:28:00,19.9,17.7,29.91,NNW,335,6.0,6.0,91,0.00,,,0.00,VWS V14.01,2013-02-14 13:28:00,
2013-02-14 07:33:00,20.1,17.9,29.91,NNW,336,5.0,7.0,91,0.00,,,0.00,VWS V14.01,2013-02-14 13:33:00,
2013-02-14 07:38:00,20.3,18.1,29.91,NW,307,4.0,7.0,91,0.00,,CLR,0.00,VWS V14.01,2013-02-14 13:38:00,
2013-02-14 07:43:00,20.4,18.2,29.91,NNW,337,5.0,8.0,91,0.00,,CLR,0.00,VWS V14.01,2013-02-14 13:43:00,
2013-02-14 07:48:00,20.6,18.4,29.91,North,355,5.0,9.0,91,0.00,,CLR,0.00,VWS V14.01,2013-02-14 13:48:00,
2013-02-14 07:53:00,20.7,18.5,29.92,NNW,335,7.0,10.0,91,0.00,,CLR,0.00,VWS V14.01,2013-02-14 13:53:00,
2013-02-14 07:58:00,20.9,18.7,29.92,North,355,10.0,11.0,91,0.00,,CLR,0.00,VWS V14.01,2013-02-14 13:58:00,
2013-02-14 08:03:00,20.9,18.7,29.92,NNW,329,4.0,11.0,91,0.00,,CLR,0.00,VWS V14.01,2013-02-14 14:03:00,
2013-02-14 08:08:00,20.8,18.6,29.93,NNW,332,6.0,10.0,91,0.00,,CLR,0.00,VWS V14.01,2013-02-14 14:08:00,
2013-02-14 08:13:00,20.7,18.2,29.93,NW,326,2.0,9.0,90,0.00,,CLR,0.00,VWS V14.01,2013-02-14 14:13:00,
2013-02-14 09:35:00,20.8,17.5,29.98,North,355,14.0,15.0,87,0.00,,CLR,0.00,VWS V14.01,2013-02-14 15:35:00,
2013-02-14 09:40:00,20.7,17.2,29.98,North,351,14.0,14.0,86,0.00,,CLR,0.00,VWS V14.01,2013-02-14 15:40:00,
2013-02-14 09:45:00,20.9,17.4,29.98,North,355,13.0,16.0,86,0.00,,CLR,0.00,VWS V14.01,2013-02-14 15:45:00,
2013-02-14 10:35:00,20.7,17.5,29.98,North,5,13.0,13.0,87,0.00,,,0.00,VWS V14.01,2013-02-14 16:35:00,
2013-02-14 10:40:00,20.7,17.2,29.98,NNW,346,11.0,14.0,86,0.00,,,0.00,VWS V14.01,2013-02-14 16:40:00,
2013-02-14 10:45:00,20.7,17.2,29.98,NNW,346,11.0,14.0,86,0.00,,BKN009,0.00,VWS V14.01,2013-02-14 16:45:00,
2013-02-14 10:50:00,21.1,17.6,29.98,North,351,9.0,13.0,86,0.00,,BKN009,0.00,VWS V14.01,2013-02-14 16:50:00,
2013-02-14 10:55:00,23.9,18.4,30.00,NNW,331,10.0,11.0,79,0.00,,CLR,0.00,VWS V14.01,2013-02-14 16:55:00,
2013-02-14 11:00:00,24.0,18.1,30.00,North,355,12.0,12.0,78,0.00,,CLR,0.00,VWS V14.01,2013-02-14 17:00:00,
2013-02-14 11:05:00,24.1,18.0,30.01,North,360,9.0,15.0,77,0.00,,CLR,0.00,VWS V14.01,2013-02-14 17:05:00,
2013-02-14 11:10:00,24.2,18.0,30.01,North,350,9.0,13.0,77,0.00,,CLR,0.00,VWS V14.01,2013-02-14 17:10:00,
2013-02-14 11:15:00,24.1,17.6,30.01,NNW,344,6.0,13.0,76,0.00,,CLR,0.00,VWS V14.01,2013-02-14 17:15:00,
2013-02-14 11:20:00,23.9,17.1,30.01,North,355,10.0,15.0,75,0.00,,CLR,0.00,VWS V14.01,2013-02-14 17:20:00,
2013-02-14 11:25:00,24.0,17.2,30.01,North,351,11.0,13.0,75,0.00,,CLR,0.00,VWS V14.01,2013-02-14 17:25:00,
2013-02-14 11:30:00,24.1,17.0,30.01,NNW,340,10.0,14.0,74,0.00,,CLR,0.00,VWS V14.01,2013-02-14 17:30:00,
2013-02-14 11:35:00,24.2,16.5,30.02,NW,323,10.0,14.0,72,0.00,,CLR,0.00,VWS V14.01,2013-02-14 17:35:00,
2013-02-14 11:40:00,23.4,17.9,30.00,North,355,12.0,15.0,79,0.00,,CLR,0.00,VWS V14.01,2013-02-14 17:40:00,
2013-02-14 11:41:00,23.3,17.8,30.00,NNW,341,10.0,12.0,79,0.00,,BKN009,0.00,VWS V14.01,2013-02-14 17:41:00,
2013-02-14 11:45:00,23.4,17.6,30.00,NNW,344,10.0,14.0,78,0.00,,CLR,0.00,VWS V14.01,2013-02-14 17:45:00,
2013-02-14 11:46:00,23.4,17.9,30.00,NNW,344,10.0,13.0,79,0.00,,BKN080,0.00,VWS V14.01,2013-02-14 17:46:00,
2013-02-14 11:50:00,23.5,17.7,30.00,NNW,343,8.0,14.0,78,0.00,,CLR,0.00,VWS V14.01,2013-02-14 17:50:00,
2013-02-14 11:51:00,23.5,17.7,30.00,NNW,337,11.0,14.0,78,0.00,,BKN080,0.00,VWS V14.01,2013-02-14 17:51:00,
2013-02-14 11:55:00,23.9,18.4,30.00,NNW,331,10.0,11.0,79,0.00,,CLR,0.00,VWS V14.01,2013-02-14 17:55:00,
2013-02-14 11:56:00,23.8,18.2,30.00,NNW,344,8.0,10.0,79,0.00,,BKN080,0.00,VWS V14.01,2013-02-14 17:56:00,
2013-02-14 12:00:00,24.0,18.1,30.00,North,355,12.0,12.0,78,0.00,,CLR,0.00,VWS V14.01,2013-02-14 18:00:00,
2013-02-14 12:01:00,24.0,18.5,30.00,North,351,7.0,11.0,79,0.00,,BKN080,0.00,VWS V14.01,2013-02-14 18:01:00,
2013-02-14 12:05:00,24.1,18.0,30.01,North,360,9.0,15.0,77,0.00,,CLR,0.00,VWS V14.01,2013-02-14 18:05:00,
2013-02-14 12:06:00,24.0,17.9,30.01,North,355,13.0,15.0,77,0.00,,BKN080,0.00,VWS V14.01,2013-02-14 18:06:00,
2013-02-14 12:10:00,24.2,18.0,30.01,North,350,9.0,13.0,77,0.00,,CLR,0.00,VWS V14.01,2013-02-14 18:10:00,
2013-02-14 12:11:00,24.2,18.3,30.01,NNW,344,7.0,13.0,78,0.00,,BKN080,0.00,VWS V14.01,2013-02-14 18:11:00,
2013-02-14 12:15:00,24.1,17.6,30.01,NNW,344,6.0,13.0,76,0.00,,CLR,0.00,VWS V14.01,2013-02-14 18:15:00,
2013-02-14 12:16:00,24.1,17.6,30.01,North,349,10.0,13.0,76,0.00,,BKN080,0.00,VWS V14.01,2013-02-14 18:16:00,
2013-02-14 12:20:00,23.9,17.1,30.01,North,355,10.0,15.0,75,0.00,,CLR,0.00,VWS V14.01,2013-02-14 18:20:00,
2013-02-14 12:21:00,24.0,17.2,30.01,NNW,333,8.0,14.0,75,0.00,,BKN080,0.00,VWS V14.01,2013-02-14 18:21:00,
2013-02-14 12:25:00,24.0,17.2,30.01,North,351,11.0,13.0,75,0.00,,CLR,0.00,VWS V14.01,2013-02-14 18:25:00,
2013-02-14 12:26:00,24.0,17.2,30.01,North,350,9.0,13.0,75,0.00,,BKN080,0.00,VWS V14.01,2013-02-14 18:26:00,
2013-02-14 12:30:00,24.1,17.0,30.01,NNW,340,10.0,14.0,74,0.00,,CLR,0.00,VWS V14.01,2013-02-14 18:30:00,
2013-02-14 12:31:00,24.1,17.0,30.02,NNW,344,11.0,14.0,74,0.00,,FEW095,0.00,VWS V14.01,2013-02-14 18:31:00,
2013-02-14 12:35:00,24.2,16.5,30.02,NW,323,10.0,14.0,72,0.00,,CLR,0.00,VWS V14.01,2013-02-14 18:35:00,
2013-02-14 12:36:00,24.2,16.8,30.02,NNW,334,12.0,14.0,73,0.00,,FEW095,0.00,VWS V14.01,2013-02-14 18:36:00,
2013-02-14 12:40:00,24.0,16.0,30.02,NNW,342,11.0,15.0,71,0.00,,CLR,0.00,VWS V14.01,2013-02-14 18:40:00,
2013-02-14 12:42:00,24.1,16.4,30.02,North,351,15.0,15.0,72,0.00,,FEW095,0.00,VWS V14.01,2013-02-14 18:42:00,
2013-02-14 12:45:00,23.9,15.9,30.02,North,355,11.0,16.0,71,0.00,,CLR,0.00,VWS V14.01,2013-02-14 18:45:00,
2013-02-14 12:47:00,23.9,15.6,30.02,NW,323,12.0,16.0,70,0.00,,FEW095,0.00,VWS V14.01,2013-02-14 18:47:00,
2013-02-14 12:50:00,23.9,15.6,30.02,NNW,329,10.0,16.0,70,0.00,,CLR,0.00,VWS V14.01,2013-02-14 18:50:00,
2013-02-14 12:52:00,23.9,15.6,30.02,NNW,342,9.0,16.0,70,0.00,,FEW095,0.00,VWS V14.01,2013-02-14 18:52:00,
2013-02-14 12:55:00,24.0,15.6,30.02,NNW,342,14.0,18.0,70,0.00,,CLR,0.00,VWS V14.01,2013-02-14 18:55:00,
2013-02-14 12:57:00,24.0,16.0,30.02,NNW,335,16.0,18.0,71,0.00,,FEW095,0.00,VWS V14.01,2013-02-14 18:57:00,
2013-02-14 13:00:00,24.1,15.1,30.02,NNW,331,12.0,18.0,68,0.00,,CLR,0.00,VWS V14.01,2013-02-14 19:00:00,
2013-02-14 13:02:00,24.0,15.0,30.02,North,349,14.0,18.0,68,0.00,,FEW095,0.00,VWS V14.01,2013-02-14 19:02:00,
2013-02-14 13:05:00,24.2,15.5,30.03,NNW,342,14.0,17.0,69,0.00,,CLR,0.00,VWS V14.01,2013-02-14 19:05:00,
2013-02-14 13:07:00,24.1,15.4,30.03,North,355,10.0,17.0,69,0.00,,FEW095,0.00,VWS V14.01,2013-02-14 19:07:00,
2013-02-14 13:10:00,24.2,14.8,30.03,NNW,348,12.0,16.0,67,0.00,,CLR,0.00,VWS V14.01,2013-02-14 19:10:00,
2013-02-14 13:12:00,24.2,15.2,30.03,NNW,340,11.0,16.0,68,0.00,,FEW095,0.00,VWS V14.01,2013-02-14 19:12:00,
2013-02-14 13:15:00,24.2,15.2,30.03,NNW,346,11.0,18.0,68,0.00,,CLR,0.00,VWS V14.01,2013-02-14 19:15:00,
2013-02-14 13:17:00,24.2,15.2,30.03,North,350,13.0,18.0,68,0.00,,FEW095,0.00,VWS V14.01,2013-02-14 19:17:00,
2013-02-14 13:20:00,24.2,14.8,30.04,North,355,16.0,17.0,67,0.00,,CLR,0.00,VWS V14.01,2013-02-14 19:20:00,
2013-02-14 13:22:00,24.2,14.8,30.04,NNW,345,12.0,17.0,67,0.00,,FEW095,0.00,VWS V14.01,2013-02-14 19:22:00,
2013-02-14 13:25:00,24.3,14.6,30.04,North,349,14.0,16.0,66,0.00,,CLR,0.00,VWS V14.01,2013-02-14 19:25:00,
2013-02-14 13:27:00,24.3,14.6,30.04,NNW,344,12.0,16.0,66,0.00,,FEW095,0.00,VWS V14.01,2013-02-14 19:27:00,
2013-02-14 13:30:00,24.2,13.4,30.04,North,355,16.0,19.0,63,0.00,,CLR,0.00,VWS V14.01,2013-02-14 19:30:00,
2013-02-14 13:32:00,24.2,13.4,30.04,North,355,16.0,19.0,63,0.00,,CLR,0.00,VWS V14.01,2013-02-14 19:32:00,
2013-02-14 13:35:00,24.0,13.6,30.04,North,360,9.0,17.0,64,0.00,,CLR,0.00,VWS V14.01,2013-02-14 19:35:00,
2013-02-14 13:37:00,24.0,13.6,30.04,NNW,346,10.0,17.0,64,0.00,,CLR,0.00,VWS V14.01,2013-02-14 19:37:00,
2013-02-14 13:40:00,24.0,14.0,30.04,North,350,14.0,19.0,65,0.00,,CLR,0.00,VWS V14.01,2013-02-14 19:40:00,
2013-02-14 13:43:00,24.0,14.0,30.04,North,349,15.0,19.0,65,0.00,,CLR,0.00,VWS V14.01,2013-02-14 19:43:00,
2013-02-14 13:45:00,24.2,13.8,30.04,NNW,340,18.0,19.0,64,0.00,,CLR,0.00,VWS V14.01,2013-02-14 19:45:00,
2013-02-14 13:48:00,24.2,13.8,30.04,NNW,340,18.0,19.0,64,0.00,,CLR,0.00,VWS V14.01,2013-02-14 19:48:00,
2013-02-14 13:50:00,24.6,14.2,30.04,NW,325,12.0,18.0,64,0.00,,CLR,0.00,VWS V14.01,2013-02-14 19:50:00,
2013-02-14 13:53:00,24.6,14.2,30.04,NW,325,12.0,18.0,64,0.00,,CLR,0.00,VWS V14.01,2013-02-14 19:53:00,
2013-02-14 13:55:00,24.7,13.6,30.05,NNW,336,13.0,18.0,62,0.00,,CLR,0.00,VWS V14.01,2013-02-14 19:55:00,
2013-02-14 13:58:00,24.7,13.6,30.05,NNW,336,13.0,18.0,62,0.00,,CLR,0.00,VWS V14.01,2013-02-14 19:58:00,
2013-02-14 14:00:00,24.7,13.6,30.05,North,355,11.0,17.0,62,0.00,,CLR,0.00,VWS V14.01,2013-02-14 20:00:00,
2013-02-14 14:03:00,24.7,13.6,30.05,North,355,11.0,17.0,62,0.00,,CLR,0.00,VWS V14.01,2013-02-14 20:03:00,
2013-02-14 14:05:00,24.5,11.9,30.05,NNW,345,16.0,23.0,58,0.00,,CLR,0.00,VWS V14.01,2013-02-14 20:05:00,
2013-02-14 14:08:00,24.5,11.9,30.05,NNW,345,16.0,23.0,58,0.00,,CLR,0.00,VWS V14.01,2013-02-14 20:08:00,
2013-02-14 14:10:00,24.0,11.8,30.06,NNW,344,19.0,21.0,59,0.00,,CLR,0.00,VWS V14.01,2013-02-14 20:10:00,
2013-02-14 14:13:00,24.0,11.8,30.06,NNW,344,19.0,21.0,59,0.00,,CLR,0.00,VWS V14.01,2013-02-14 20:13:00,
2013-02-14 14:15:00,23.9,11.3,30.07,North,349,15.0,20.0,58,0.00,,CLR,0.00,VWS V14.01,2013-02-14 20:15:00,
2013-02-14 14:18:00,23.9,11.3,30.07,NNW,338,12.0,15.0,58,0.00,,CLR,0.00,VWS V14.01,2013-02-14 20:18:00,
2013-02-14 14:20:00,24.0,11.4,30.07,NNW,344,15.0,19.0,58,0.00,,CLR,0.00,VWS V14.01,2013-02-14 20:20:00,
2013-02-14 14:23:00,24.0,11.4,30.07,NNW,338,13.0,15.0,58,0.00,,CLR,0.00,VWS V14.01,2013-02-14 20:23:00,
2013-02-14 14:25:00,24.2,11.2,30.07,NNW,348,12.0,18.0,57,0.00,,CLR,0.00,VWS V14.01,2013-02-14 20:25:00,
2013-02-14 14:28:00,24.2,11.2,30.07,NNW,344,18.0,18.0,57,0.00,,CLR,0.00,VWS V14.01,2013-02-14 20:28:00,
2013-02-14 14:30:00,24.0,10.6,30.07,NNW,342,14.0,18.0,56,0.00,,CLR,0.00,VWS V14.01,2013-02-14 20:30:00,
2013-02-14 14:33:00,24.1,10.7,30.07,North,350,10.0,15.0,56,0.00,,CLR,0.00,VWS V14.01,2013-02-14 20:33:00,
2013-02-14 14:35:00,24.0,10.2,30.07,NNW,332,13.0,18.0,55,0.00,,CLR,0.00,VWS V14.01,2013-02-14 20:35:00,
2013-02-14 14:38:00,23.9,10.1,30.07,NNW,336,13.0,16.0,55,0.00,,CLR,0.00,VWS V14.01,2013-02-14 20:38:00,
2013-02-14 14:40:00,23.8,10.4,30.08,NNW,348,13.0,16.0,56,0.00,,CLR,0.00,VWS V14.01,2013-02-14 20:40:00,
2013-02-14 14:43:00,23.8,10.4,30.08,North,360,16.0,17.0,56,0.00,,CLR,0.00,VWS V14.01,2013-02-14 20:43:00,
2013-02-14 14:45:00,23.8,10.0,30.08,NNW,336,11.0,18.0,55,0.00,,CLR,0.00,VWS V14.01,2013-02-14 20:45:00,
2013-02-14 14:48:00,23.8,10.4,30.08,NNW,340,11.0,11.0,56,0.00,,CLR,0.00,VWS V14.01,2013-02-14 20:48:00,
2013-02-14 14:50:00,23.8,9.6,30.08,NNW,344,13.0,17.0,54,0.00,,CLR,0.00,VWS V14.01,2013-02-14 20:50:00,
2013-02-14 14:54:00,23.8,10.0,30.08,North,350,12.0,15.0,55,0.00,,CLR,0.00,VWS V14.01,2013-02-14 20:54:00,
2013-02-14 14:55:00,23.7,9.9,30.08,North,5,15.0,17.0,55,0.00,,CLR,0.00,VWS V14.01,2013-02-14 20:55:00,
2013-02-14 14:59:00,23.6,9.8,30.08,NNW,341,16.0,19.0,55,0.00,,CLR,0.00,VWS V14.01,2013-02-14 20:59:00,
2013-02-14 15:00:00,23.5,9.7,30.09,North,355,14.0,21.0,55,0.00,,CLR,0.00,VWS V14.01,2013-02-14 21:00:00,
2013-02-14 15:04:00,23.4,9.6,30.09,North,355,10.0,18.0,55,0.00,,CLR,0.00,VWS V14.01,2013-02-14 21:04:00,
2013-02-14 15:05:00,23.4,9.6,30.09,NNW,338,14.0,18.0,55,0.00,,CLR,0.00,VWS V14.01,2013-02-14 21:05:00,
2013-02-14 15:09:00,23.4,9.6,30.09,NNW,335,13.0,16.0,55,0.00,,CLR,0.00,VWS V14.01,2013-02-14 21:09:00,
2013-02-14 15:10:00,23.5,9.7,30.09,NNW,334,13.0,16.0,55,0.00,,CLR,0.00,VWS V14.01,2013-02-14 21:10:00,
2013-02-14 15:14:00,23.5,9.3,30.09,North,350,13.0,16.0,54,0.00,,CLR,0.00,VWS V14.01,2013-02-14 21:14:00,
2013-02-14 15:15:00,23.6,9.0,30.09,North,355,12.0,17.0,53,0.00,,CLR,0.00,VWS V14.01,2013-02-14 21:15:00,
2013-02-14 15:19:00,23.6,9.0,30.10,NNW,346,8.0,16.0,53,0.00,,CLR,0.00,VWS V14.01,2013-02-14 21:19:00,
2013-02-14 15:20:00,23.4,8.8,30.10,North,355,10.0,19.0,53,0.00,,CLR,0.00,VWS V14.01,2013-02-14 21:20:00,
2013-02-14 15:24:00,23.4,9.2,30.10,North,355,15.0,15.0,54,0.00,,CLR,0.00,VWS V14.01,2013-02-14 21:24:00,
2013-02-14 15:25:00,23.3,7.9,30.10,NNW,342,12.0,19.0,51,0.00,,CLR,0.00,VWS V14.01,2013-02-14 21:25:00,
2013-02-14 15:29:00,23.3,8.3,30.10,North,350,14.0,17.0,52,0.00,,CLR,0.00,VWS V14.01,2013-02-14 21:29:00,
2013-02-14 15:30:00,23.3,7.9,30.10,NNW,340,12.0,17.0,51,0.00,,CLR,0.00,VWS V14.01,2013-02-14 21:30:00,
2013-02-14 15:34:00,23.3,7.9,30.11,North,5,14.0,16.0,51,0.00,,CLR,0.00,VWS V14.01,2013-02-14 21:34:00,
2013-02-14 15:35:00,23.3,8.3,30.11,North,350,11.0,16.0,52,0.00,,CLR,0.00,VWS V14.01,2013-02-14 21:35:00,
2013-02-14 15:40:00,23.2,8.2,30.11,NNW,340,10.0,19.0,52,0.00,,CLR,0.00,VWS V14.01,2013-02-14 21:40:00,
2013-02-14 15:45:00,23.3,8.3,30.11,NNW,341,9.0,15.0,52,0.00,,CLR,0.00,VWS V14.01,2013-02-14 21:45:00,
2013-02-14 15:50:00,23.5,8.5,30.12,NNW,340,14.0,16.0,52,0.00,,CLR,0.00,VWS V14.01,2013-02-14 21:50:00,
2013-02-14 15:55:00,23.6,7.7,30.12,NNW,334,14.0,17.0,50,0.00,,CLR,0.00,VWS V14.01,2013-02-14 21:55:00,
2013-02-14 16:00:00,23.7,8.2,30.12,NNW,338,10.0,14.0,51,0.00,,CLR,0.00,VWS V14.01,2013-02-14 22:00:00,
2013-02-14 16:05:00,23.7,8.2,30.13,WNW,302,9.0,16.0,51,0.00,,CLR,0.00,VWS V14.01,2013-02-14 22:05:00,
2013-02-14 16:10:00,23.6,8.1,30.13,NNW,334,11.0,13.0,51,0.00,,CLR,0.00,VWS V14.01,2013-02-14 22:10:00,
2013-02-14 16:15:00,23.4,8.4,30.13,North,355,9.0,16.0,52,0.00,,CLR,0.00,VWS V14.01,2013-02-14 22:15:00,
2013-02-14 16:20:00,23.4,7.9,30.14,NNW,337,12.0,16.0,51,0.00,,CLR,0.00,VWS V14.01,2013-02-14 22:20:00,
2013-02-14 16:25:00,23.1,7.7,30.14,NNW,344,12.0,15.0,51,0.00,,CLR,0.00,VWS V14.01,2013-02-14 22:25:00,
2013-02-14 16:26:00,23.3,7.9,30.14,NNW,346,11.0,14.0,51,0.00,,CLR,0.00,VWS V14.01,2013-02-14 22:26:00,
2013-02-14 16:30:00,22.8,7.0,30.15,NNW,345,10.0,18.0,50,0.00,,CLR,0.00,VWS V14.01,2013-02-14 22:30:00,
2013-02-14 16:31:00,23.0,7.6,30.14,NNW,338,13.0,15.0,51,0.00,,CLR,0.00,VWS V14.01,2013-02-14 22:31:00,
2013-02-14 16:35:00,22.6,7.6,30.15,NNW,346,10.0,15.0,52,0.00,,CLR,0.00,VWS V14.01,2013-02-14 22:35:00,
2013-02-14 16:36:00,22.7,7.3,30.15,NNW,346,8.0,15.0,51,0.00,,CLR,0.00,VWS V14.01,2013-02-14 22:36:00,
2013-02-14 16:40:00,22.4,7.4,30.15,NNW,336,10.0,14.0,52,0.00,,CLR,0.00,VWS V14.01,2013-02-14 22:40:00,
2013-02-14 16:41:00,22.4,7.4,30.15,NW,326,11.0,12.0,52,0.00,,CLR,0.00,VWS V14.01,2013-02-14 22:41:00,
2013-02-14 16:45:00,22.3,7.4,30.15,NW,320,11.0,14.0,52,0.00,,CLR,0.00,VWS V14.01,2013-02-14 22:45:00,
2013-02-14 16:46:00,22.3,7.4,30.15,NW,319,13.0,13.0,52,0.00,,CLR,0.00,VWS V14.01,2013-02-14 22:46:00,
2013-02-14 16:50:00,22.3,7.4,30.16,NNW,330,15.0,16.0,52,0.00,,CLR,0.00,VWS V14.01,2013-02-14 22:50:00,
2013-02-14 16:51:00,22.3,7.4,30.16,NNW,337,10.0,16.0,52,0.00,,CLR,0.00,VWS V14.01,2013-02-14 22:51:00,
2013-02-14 16:55:00,22.3,7.4,30.16,NW,321,16.0,18.0,52,0.00,,CLR,0.00,VWS V14.01,2013-02-14 22:55:00,
2013-02-14 16:56:00,22.3,7.4,30.16,NNW,332,14.0,18.0,52,0.00,,CLR,0.00,VWS V14.01,2013-02-14 22:56:00,
2013-02-14 17:00:00,22.2,7.3,30.17,NNW,331,9.0,16.0,52,0.00,,CLR,0.00,VWS V14.01,2013-02-14 23:00:00,
2013-02-14 17:01:00,22.2,7.3,30.16,NW,306,15.0,16.0,52,0.00,,CLR,0.00,VWS V14.01,2013-02-14 23:01:00,
2013-02-14 17:05:00,22.0,7.5,30.17,NNW,330,9.0,15.0,53,0.00,,CLR,0.00,VWS V14.01,2013-02-14 23:05:00,
2013-02-14 17:06:00,22.1,7.6,30.17,NNW,334,9.0,15.0,53,0.00,,CLR,0.00,VWS V14.01,2013-02-14 23:06:00,
2013-02-14 17:10:00,21.9,7.4,30.17,NNW,336,12.0,16.0,53,0.00,,CLR,0.00,VWS V14.01,2013-02-14 23:10:00,
2013-02-14 17:11:00,21.9,7.4,30.17,NNW,348,15.0,15.0,53,0.00,,CLR,0.00,VWS V14.01,2013-02-14 23:11:00,
2013-02-14 17:15:00,21.8,7.3,30.17,NNW,342,12.0,19.0,53,0.00,,CLR,0.00,VWS V14.01,2013-02-14 23:15:00,
2013-02-14 17:17:00,21.9,7.4,30.17,NNW,333,9.0,19.0,53,0.00,,CLR,0.00,VWS V14.01,2013-02-14 23:17:00,
2013-02-14 17:20:00,21.7,7.2,30.17,NNW,338,12.0,19.0,53,0.00,,CLR,0.00,VWS V14.01,2013-02-14 23:20:00,
2013-02-14 17:22:00,21.7,6.8,30.17,NNW,344,11.0,17.0,52,0.00,,CLR,0.00,VWS V14.01,2013-02-14 23:22:00,
2013-02-14 17:25:00,21.5,7.0,30.18,NNW,329,12.0,15.0,53,0.00,,CLR,0.00,VWS V14.01,2013-02-14 23:25:00,
2013-02-14 17:27:00,21.6,6.7,30.18,North,349,10.0,15.0,52,0.00,,CLR,0.00,VWS V14.01,2013-02-14 23:27:00,
2013-02-14 17:30:00,21.3,6.8,30.18,NNW,340,16.0,16.0,53,0.00,,CLR,0.00,VWS V14.01,2013-02-14 23:30:00,
2013-02-14 17:32:00,21.3,6.8,30.18,NNW,336,11.0,14.0,53,0.00,,CLR,0.00,VWS V14.01,2013-02-14 23:32:00,
2013-02-14 17:35:00,21.3,6.8,30.18,NNW,340,10.0,16.0,53,0.00,,CLR,0.00,VWS V14.01,2013-02-14 23:35:00,
2013-02-14 17:37:00,21.3,6.8,30.18,NNW,329,9.0,16.0,53,0.00,,CLR,0.00,VWS V14.01,2013-02-14 23:37:00,
2013-02-14 17:40:00,21.1,6.7,30.19,NNW,333,12.0,14.0,53,0.00,,CLR,0.00,VWS V14.01,2013-02-14 23:40:00,
2013-02-14 17:42:00,21.1,6.7,30.19,NNW,333,14.0,14.0,53,0.00,,CLR,0.00,VWS V14.01,2013-02-14 23:42:00,
2013-02-14 17:45:00,21.2,6.3,30.19,NNW,338,12.0,16.0,52,0.00,,CLR,0.00,VWS V14.01,2013-02-14 23:45:00,
2013-02-14 17:47:00,21.2,6.3,30.19,NNW,336,10.0,16.0,52,0.00,,CLR,0.00,VWS V14.01,2013-02-14 23:47:00,
2013-02-14 17:50:00,21.2,6.3,30.19,NNW,338,9.0,15.0,52,0.00,,CLR,0.00,VWS V14.01,2013-02-14 23:50:00,
2013-02-14 17:52:00,21.3,6.4,30.19,NNW,342,6.0,15.0,52,0.00,,CLR,0.00,VWS V14.01,2013-02-14 23:52:00,
2013-02-14 17:55:00,21.0,6.2,30.19,NNW,341,10.0,12.0,52,0.00,,CLR,0.00,VWS V14.01,2013-02-14 23:55:00,
2013-02-14 17:57:00,21.0,6.2,30.19,NNW,337,9.0,12.0,52,0.00,,CLR,0.00,VWS V14.01,2013-02-14 23:57:00,
2013-02-14 18:00:00,20.7,6.3,30.19,NNW,336,10.0,11.0,53,0.00,,CLR,0.00,VWS V14.01,2013-02-15 00:00:00,
2013-02-14 18:03:00,20.7,6.3,30.19,NNW,342,10.0,11.0,53,0.00,,CLR,0.00,VWS V14.01,2013-02-15 00:03:00,
2013-02-14 18:05:00,20.4,6.0,30.20,NNW,333,5.0,10.0,53,0.00,,CLR,0.00,VWS V14.01,2013-02-15 00:05:00,
2013-02-14 18:08:00,20.4,6.0,30.20,NNW,333,4.0,10.0,53,0.00,,CLR,0.00,VWS V14.01,2013-02-15 00:08:00,
2013-02-14 18:10:00,19.9,5.9,30.20,NW,307,5.0,9.0,54,0.00,,CLR,0.00,VWS V14.01,2013-02-15 00:10:00,
2013-02-14 18:13:00,19.9,5.9,30.20,NW,307,5.0,9.0,54,0.00,,CLR,0.00,VWS V14.01,2013-02-15 00:13:00,
2013-02-14 18:15:00,19.6,6.1,30.21,NW,318,4.0,9.0,55,0.00,,CLR,0.00,VWS V14.01,2013-02-15 00:15:00,
2013-02-14 18:18:00,19.6,6.1,30.21,NW,318,4.0,9.0,55,0.00,,CLR,0.00,VWS V14.01,2013-02-15 00:18:00,
2013-02-14 18:20:00,19.1,5.6,30.21,NW,323,5.0,9.0,55,0.00,,CLR,0.00,VWS V14.01,2013-02-15 00:20:00,
2013-02-14 18:23:00,19.1,5.6,30.21,NW,323,5.0,9.0,55,0.00,,CLR,0.00,VWS V14.01,2013-02-15 00:23:00,
2013-02-14 18:25:00,18.6,5.5,30.21,NNW,330,5.0,9.0,56,0.00,,CLR,0.00,VWS V14.01,2013-02-15 00:25:00,
2013-02-14 18:28:00,18.6,5.5,30.21,NNW,330,5.0,9.0,56,0.00,,CLR,0.00,VWS V14.01,2013-02-15 00:28:00,
2013-02-14 18:30:00,18.5,7.7,30.22,NW,317,5.0,8.0,62,0.00,,CLR,0.00,VWS V14.01,2013-02-15 00:30:00,
2013-02-14 18:33:00,18.5,7.7,30.22,NW,317,5.0,8.0,62,0.00,,CLR,0.00,VWS V14.01,2013-02-15 00:33:00,
2013-02-14 18:35:00,18.4,5.7,30.22,NW,313,5.0,7.0,57,0.00,,CLR,0.00,VWS V14.01,2013-02-15 00:35:00,
2013-02-14 18:38:00,18.4,5.7,30.22,NW,313,5.0,7.0,57,0.00,,CLR,0.00,VWS V14.01,2013-02-15 00:38:00,
2013-02-14 18:40:00,18.3,5.6,30.22,NW,325,5.0,8.0,57,0.00,,CLR,0.00,VWS V14.01,2013-02-15 00:40:00,
2013-02-14 18:43:00,18.3,5.6,30.22,NW,325,5.0,8.0,57,0.00,,CLR,0.00,VWS V14.01,2013-02-15 00:43:00,
2013-02-14 18:45:00,17.9,5.6,30.23,NW,318,4.0,7.0,58,0.00,,CLR,0.00,VWS V14.01,2013-02-15 00:45:00,
2013-02-14 18:48:00,17.9,5.6,30.23,NW,318,4.0,7.0,58,0.00,,CLR,0.00,VWS V14.01,2013-02-15 00:48:00,
2013-02-14 18:50:00,17.9,5.6,30.23,NW,315,5.0,9.0,58,0.00,,CLR,0.00,VWS V14.01,2013-02-15 00:50:00,
2013-02-14 18:53:00,17.9,5.6,30.23,NW,315,5.0,9.0,58,0.00,,CLR,0.00,VWS V14.01,2013-02-15 00:53:00,
2013-02-14 18:55:00,17.7,5.4,30.23,NNW,337,4.0,7.0,58,0.00,,CLR,0.00,VWS V14.01,2013-02-15 00:55:00,
2013-02-14 18:58:00,17.7,5.4,30.23,NNW,337,4.0,7.0,58,0.00,,CLR,0.00,VWS V14.01,2013-02-15 00:58:00,
2013-02-14 19:00:00,17.2,5.0,30.23,NW,317,5.0,7.0,58,0.00,,CLR,0.00,VWS V14.01,2013-02-15 01:00:00,
2013-02-14 19:03:00,17.2,5.0,30.23,NW,317,5.0,7.0,58,0.00,,CLR,0.00,VWS V14.01,2013-02-15 01:03:00,
2013-02-14 19:05:00,16.9,5.1,30.23,NW,318,4.0,6.0,59,0.00,,CLR,0.00,VWS V14.01,2013-02-15 01:05:00,
2013-02-14 19:08:00,16.9,5.1,30.23,NW,316,4.0,4.0,59,0.00,,CLR,0.00,VWS V14.01,2013-02-15 01:08:00,
2013-02-14 19:10:00,16.9,5.1,30.24,NW,316,5.0,7.0,59,0.00,,CLR,0.00,VWS V14.01,2013-02-15 01:10:00,
2013-02-14 19:13:00,16.9,5.1,30.24,NW,317,5.0,5.0,59,0.00,,CLR,0.00,VWS V14.01,2013-02-15 01:13:00,
2013-02-14 19:15:00,16.9,5.4,30.24,NW,306,5.0,9.0,60,0.00,,CLR,0.00,VWS V14.01,2013-02-15 01:15:00,
2013-02-14 19:18:00,16.9,5.4,30.24,NW,309,5.0,6.0,60,0.00,,CLR,0.00,VWS V14.01,2013-02-15 01:18:00,
2013-02-14 19:20:00,17.0,5.5,30.24,NW,319,4.0,9.0,60,0.00,,CLR,0.00,VWS V14.01,2013-02-15 01:20:00,
2013-02-14 19:23:00,17.0,5.5,30.24,NW,309,4.0,5.0,60,0.00,,CLR,0.00,VWS V14.01,2013-02-15 01:23:00,
2013-02-14 19:25:00,16.7,4.9,30.24,NW,323,6.0,8.0,59,0.00,,CLR,0.00,VWS V14.01,2013-02-15 01:25:00,
2013-02-14 19:28:00,16.7,4.9,30.24,NW,319,4.0,6.0,59,0.00,,CLR,0.00,VWS V14.01,2013-02-15 01:28:00,
2013-02-14 19:30:00,16.3,4.5,30.24,WNW,300,3.0,7.0,59,0.00,,CLR,0.00,VWS V14.01,2013-02-15 01:30:00,
2013-02-14 19:33:00,16.3,4.5,30.24,NW,317,5.0,5.0,59,0.00,,CLR,0.00,VWS V14.01,2013-02-15 01:33:00,
2013-02-14 19:35:00,16.2,4.8,30.25,NW,314,6.0,9.0,60,0.00,,CLR,0.00,VWS V14.01,2013-02-15 01:35:00,
2013-02-14 19:39:00,16.2,4.8,30.25,WNW,302,4.0,8.0,60,0.00,,CLR,0.00,VWS V14.01,2013-02-15 01:39:00,
2013-02-14 19:40:00,16.2,4.8,30.25,NW,317,8.0,9.0,60,0.00,,CLR,0.00,VWS V14.01,2013-02-15 01:40:00,
2013-02-14 19:44:00,16.2,4.4,30.25,NNW,333,6.0,8.0,59,0.00,,CLR,0.00,VWS V14.01,2013-02-15 01:44:00,
2013-02-14 19:45:00,16.1,3.9,30.25,NW,313,4.0,8.0,58,0.00,,CLR,0.00,VWS V14.01,2013-02-15 01:45:00,
2013-02-14 19:49:00,16.0,4.2,30.26,NNW,329,7.0,7.0,59,0.00,,CLR,0.00,VWS V14.01,2013-02-15 01:49:00,
2013-02-14 19:50:00,15.9,3.8,30.26,NW,310,7.0,9.0,58,0.00,,CLR,0.00,VWS V14.01,2013-02-15 01:50:00,
2013-02-14 19:54:00,15.8,3.7,30.26,NW,313,5.0,6.0,58,0.00,,CLR,0.00,VWS V14.01,2013-02-15 01:54:00,
2013-02-14 19:55:00,15.7,4.3,30.26,NW,325,6.0,11.0,60,0.00,,CLR,0.00,VWS V14.01,2013-02-15 01:55:00,
2013-02-14 19:59:00,15.7,4.3,30.26,NW,319,6.0,9.0,60,0.00,,CLR,0.00,VWS V14.01,2013-02-15 01:59:00,
2013-02-14 20:00:00,15.7,4.7,30.26,NNW,334,5.0,9.0,61,0.00,,CLR,0.00,VWS V14.01,2013-02-15 02:00:00,
2013-02-14 20:04:00,15.7,4.7,30.26,NW,321,7.0,8.0,61,0.00,,CLR,0.00,VWS V14.01,2013-02-15 02:04:00,
2013-02-14 20:05:00,15.7,5.4,30.26,NW,322,9.0,13.0,63,0.00,,CLR,0.00,VWS V14.01,2013-02-15 02:05:00,
2013-02-14 20:09:00,15.7,5.7,30.26,NNW,343,6.0,11.0,64,0.00,,CLR,0.00,VWS V14.01,2013-02-15 02:09:00,
2013-02-14 20:10:00,15.8,5.8,30.26,NNW,328,10.0,13.0,64,0.00,,CLR,0.00,VWS V14.01,2013-02-15 02:10:00,
2013-02-14 20:14:00,15.8,6.1,30.26,NW,318,6.0,12.0,65,0.00,,CLR,0.00,VWS V14.01,2013-02-15 02:14:00,
2013-02-14 20:15:00,15.8,6.1,30.26,NW,323,7.0,14.0,65,0.00,,CLR,0.00,VWS V14.01,2013-02-15 02:15:00,
2013-02-14 20:19:00,15.8,6.1,30.26,NW,321,7.0,14.0,65,0.00,,CLR,0.00,VWS V14.01,2013-02-15 02:19:00,
2013-02-14 20:20:00,15.7,6.4,30.26,WNW,296,10.0,14.0,66,0.00,,CLR,0.00,VWS V14.01,2013-02-15 02:20:00,
2013-02-14 20:24:00,15.7,6.4,30.26,NW,313,11.0,14.0,66,0.00,,CLR,0.00,VWS V14.01,2013-02-15 02:24:00,
2013-02-14 20:25:00,15.7,6.4,30.26,NW,312,11.0,14.0,66,0.00,,CLR,0.00,VWS V14.01,2013-02-15 02:25:00,
2013-02-14 20:29:00,15.6,6.3,30.26,NW,306,8.0,11.0,66,0.00,,CLR,0.00,VWS V14.01,2013-02-15 02:29:00,
2013-02-14 20:30:00,15.5,6.2,30.27,NW,317,5.0,12.0,66,0.00,,CLR,0.00,VWS V14.01,2013-02-15 02:30:00,
2013-02-14 20:35:00,15.3,6.0,30.27,NW,321,5.0,11.0,66,0.00,,CLR,0.00,VWS V14.01,2013-02-15 02:35:00,
2013-02-14 20:40:00,15.0,5.7,30.28,NW,311,4.0,7.0,66,0.00,,CLR,0.00,VWS V14.01,2013-02-15 02:40:00,
2013-02-14 20:45:00,14.6,5.3,30.27,WNW,294,5.0,6.0,66,0.00,,CLR,0.00,VWS V14.01,2013-02-15 02:45:00,
2013-02-14 20:50:00,13.9,4.7,30.27,WNW,299,2.0,6.0,66,0.00,,CLR,0.00,VWS V14.01,2013-02-15 02:50:00,
2013-02-14 20:55:00,13.2,4.3,30.28,WNW,290,6.0,8.0,67,0.00,,CLR,0.00,VWS V14.01,2013-02-15 02:55:00,
2013-02-14 21:00:00,12.6,4.1,30.28,NW,307,5.0,10.0,68,0.00,,CLR,0.00,VWS V14.01,2013-02-15 03:00:00,
2013-02-14 21:05:00,12.2,3.7,30.28,NW,307,2.0,9.0,68,0.00,,CLR,0.00,VWS V14.01,2013-02-15 03:05:00,
2013-02-14 21:10:00,11.9,3.7,30.29,NW,323,3.0,10.0,69,0.00,,CLR,0.00,VWS V14.01,2013-02-15 03:10:00,
2013-02-14 21:15:00,11.7,3.5,30.29,WNW,302,5.0,7.0,69,0.00,,CLR,0.00,VWS V14.01,2013-02-15 03:15:00,
2013-02-14 21:20:00,11.6,3.4,30.29,NW,319,4.0,8.0,69,0.00,,CLR,0.00,VWS V14.01,2013-02-15 03:20:00,
2013-02-14 21:25:00,11.4,3.2,30.29,NW,307,4.0,7.0,69,0.00,,CLR,0.00,VWS V14.01,2013-02-15 03:25:00,